Weather History for Kearney, NE

Change the Weather History Date:

Sunday, July 29, 2012

  Actual Average Record
Temperature  
Mean Temperature 81 °F 75 °F  
Max Temperature 97 °F 86 °F 106 °F (1917)
Min Temperature 64 °F 63 °F 52 °F (1971)
Degree Days  
Heating Degree Days 0 0  
Month to date heating degree days 0  
Since 1 June heating degree days 35  
Since 1 July heating degree days 0  
Cooling Degree Days 16 10  
Month to date cooling degree days 286  
Year to date cooling degree days 512  
Since 1 June cooling degree days 465  
Growing Degree Days 31 (Base 50)    
Moisture  
Dew Point 65 °F    
Average Humidity 61    
Maximum Humidity 87    
Minimum Humidity 35    
Precipitation  
Precipitation 0.09 in - 1.92 in (1948)
Sea Level Pressure  
Sea Level Pressure 29.99 in    
Wind  
Wind Speed 7 mph (ENE)    
Max Wind Speed 13 mph    
Max Gust Speed -    
Visibility 10 miles    
Events      
T = Trace of Precipitation, MM = Missing Value Source: NWS Daily Summary

Daily Weather History Graph

Daily Weather History Graph

Search for Another Location

Airport:

Trip Planner

Search our weather history database for the weather conditions in past years. The results will help you decide how hot, cold, wet, or windy it might be!

Date:

Astronomy

Jul. 29, 2012 Rise Set
Actual Time 6:30 AM CDT 8:54 PM CDT
Civil Twilight 5:59 AM CDT 9:24 PM CDT
Nautical Twilight 5:20 AM CDT 10:03 PM CDT
Astronomical Twilight 4:38 AM CDT 10:45 PM CDT
Moon 6:02 PM CDT (7/29) 2:45 AM CDT (7/29)
Length of Visible Light 15h 25m
Length of Day
14h 23m
Waxing Gibbous, 85% of the Moon is Illuminated
Jul 29
Waxing Gibbous
Aug 1
Full
Aug 9
Last Quarter
Aug 17
New
Aug 24
First Quarter

Hourly Weather History & Observations

Time (CDT) Temp. Heat Index Dew Point Humidity Pressure Visibility Wind Dir Wind Speed Gust Speed Precip Events Conditions
12:15 AM 73.4 °F - 64.4 °F 73% 29.99 in 10.0 mi South 5.8 mph - N/A   Clear
12:35 AM 71.6 °F - 64.4 °F 78% 29.99 in 10.0 mi SSW 8.1 mph - N/A   Clear
12:55 AM 73.4 °F - 64.4 °F 73% 29.99 in 10.0 mi SSW 5.8 mph - N/A   Clear
1:15 AM 71.6 °F - 64.4 °F 78% 29.99 in 10.0 mi South 4.6 mph - N/A   Clear
1:35 AM 71.6 °F - 62.6 °F 73% 29.98 in 10.0 mi SSW 5.8 mph - N/A   Clear
1:55 AM 71.6 °F - 62.6 °F 73% 29.98 in 10.0 mi SW 3.5 mph - N/A   Clear
2:15 AM 71.6 °F - 64.4 °F 78% 29.98 in 10.0 mi South 4.6 mph - N/A   Clear
2:35 AM 68.0 °F - 62.6 °F 83% 29.98 in 10.0 mi ESE 5.8 mph - N/A   Clear
2:55 AM 66.2 °F - 62.6 °F 88% 29.98 in 10.0 mi East 4.6 mph - N/A   Clear
3:15 AM 66.2 °F - 64.4 °F 94% 29.98 in 10.0 mi Calm Calm - N/A   Clear
3:35 AM 69.8 °F - 62.6 °F 78% 29.98 in 10.0 mi Calm Calm - N/A   Clear
3:55 AM 66.2 °F - 62.6 °F 88% 29.97 in 10.0 mi North 3.5 mph - N/A   Clear
4:15 AM 68.0 °F - 62.6 °F 83% 29.97 in 10.0 mi NNW 3.5 mph - N/A   Clear
4:35 AM 66.2 °F - 62.6 °F 88% 29.97 in 10.0 mi Calm Calm - N/A   Clear
4:55 AM 66.2 °F - 62.6 °F 88% 29.97 in 10.0 mi Calm Calm - N/A   Clear
5:15 AM 66.2 °F - 62.6 °F 88% 29.97 in 10.0 mi Calm Calm - N/A   Clear
5:35 AM 66.2 °F - 62.6 °F 88% 29.99 in 10.0 mi NNW 6.9 mph - N/A   Clear
5:55 AM 66.2 °F - 62.6 °F 88% 29.99 in 10.0 mi North 8.1 mph - N/A   Clear
6:15 AM 66.2 °F - 62.6 °F 88% 30.00 in 10.0 mi North 4.6 mph - N/A   Clear
6:35 AM 66.2 °F - 62.6 °F 88% 30.00 in 10.0 mi North 5.8 mph - N/A   Clear
6:55 AM 66.2 °F - 62.6 °F 88% 30.00 in 10.0 mi NW 3.5 mph - N/A   Clear
7:15 AM 66.2 °F - 62.6 °F 88% 30.00 in 10.0 mi NW 3.5 mph - N/A   Clear
7:35 AM 69.8 °F - 62.6 °F 78% 30.01 in 10.0 mi NW 4.6 mph - N/A   Clear
7:55 AM 69.8 °F - 64.4 °F 83% 30.01 in 10.0 mi NW 3.5 mph - N/A   Clear
8:15 AM 71.6 °F - 64.4 °F 78% 30.02 in 10.0 mi West 3.5 mph - N/A   Clear
8:35 AM 75.2 °F - 64.4 °F 69% 30.02 in 10.0 mi Calm Calm - N/A   Clear
8:55 AM 77.0 °F - 66.2 °F 69% 30.02 in 10.0 mi NNW 4.6 mph - N/A   Clear
9:15 AM 78.8 °F - 66.2 °F 65% 30.02 in 10.0 mi North 4.6 mph - N/A   Clear
9:35 AM 82.4 °F 84.6 °F 66.2 °F 58% 30.02 in 10.0 mi North 6.9 mph - N/A   Clear
9:55 AM 84.2 °F 87.3 °F 68.0 °F 58% 30.02 in 10.0 mi NE 6.9 mph - N/A   Clear
10:15 AM 87.8 °F 90.4 °F 66.2 °F 49% 30.02 in 10.0 mi NNE 10.4 mph - N/A   Clear
10:35 AM 89.6 °F 91.1 °F 64.4 °F 43% 30.02 in 10.0 mi NE 11.5 mph - N/A   Clear
10:55 AM 89.6 °F 91.1 °F 64.4 °F 43% 30.02 in 10.0 mi NE 9.2 mph - N/A   Clear
11:15 AM 91.4 °F 92.1 °F 62.6 °F 38% 30.02 in 10.0 mi ENE 9.2 mph - N/A   Clear
11:35 AM 91.4 °F 94.0 °F 66.2 °F 43% 30.03 in 10.0 mi East 10.4 mph - N/A   Clear
11:55 AM 91.4 °F 93.2 °F 64.4 °F 41% 30.02 in 10.0 mi East 10.4 mph - N/A   Clear
12:15 PM 91.4 °F 94.0 °F 66.2 °F 43% 30.02 in 10.0 mi East 11.5 mph - N/A   Clear
12:35 PM 93.2 °F 94.9 °F 64.4 °F 38% 30.02 in 10.0 mi East 11.5 mph - N/A   Clear
12:55 PM 93.2 °F 94.1 °F 62.6 °F 36% 30.01 in 10.0 mi ESE 10.4 mph - N/A   Clear
1:15 PM 93.2 °F 94.9 °F 64.4 °F 38% 30.01 in 10.0 mi East 9.2 mph - N/A   Clear
1:35 PM 95.0 °F 97.0 °F 64.4 °F 36% 30.00 in 10.0 mi East 11.5 mph - N/A   Clear
1:55 PM 95.0 °F 97.0 °F 64.4 °F 36% 30.00 in 10.0 mi East 9.2 mph - N/A   Clear
2:15 PM 95.0 °F 97.0 °F 64.4 °F 36% 30.00 in 10.0 mi East 11.5 mph - N/A   Clear
2:35 PM 96.8 °F 100.7 °F 66.2 °F 37% 30.00 in 10.0 mi ESE 12.7 mph - N/A   Clear
2:55 PM 96.8 °F 99.0 °F 64.4 °F 34% 30.00 in 10.0 mi East 11.5 mph - N/A   Clear
3:15 PM 95.0 °F 98.5 °F 66.2 °F 39% 29.99 in 10.0 mi East 11.5 mph - N/A   Clear
3:35 PM 93.2 °F 96.2 °F 66.2 °F 41% 29.99 in 10.0 mi ESE 11.5 mph - N/A   Clear
3:55 PM 91.4 °F 93.2 °F 64.4 °F 41% 30.00 in 10.0 mi East 10.4 mph - N/A   Clear
4:15 PM 91.4 °F 92.1 °F 62.6 °F 38% 29.99 in 10.0 mi East 10.4 mph - N/A   Clear
4:35 PM 91.4 °F 91.4 °F 60.8 °F 36% 29.99 in 10.0 mi East 10.4 mph - N/A   Clear
4:55 PM 91.4 °F 92.1 °F 62.6 °F 38% 29.99 in 10.0 mi East 10.4 mph - N/A   Clear
5:15 PM 89.6 °F 91.1 °F 64.4 °F 43% 29.97 in 10.0 mi East 12.7 mph - N/A   Clear
5:35 PM 87.8 °F 91.4 °F 68.0 °F 52% 29.98 in 10.0 mi South 11.5 mph - N/A   Clear
5:55 PM 91.4 °F 94.0 °F 66.2 °F 43% 29.97 in 10.0 mi SSE 9.2 mph - N/A   Clear
6:15 PM 89.6 °F 92.2 °F 66.2 °F 46% 29.96 in 10.0 mi ESE 8.1 mph - N/A   Clear
6:35 PM 91.4 °F 94.0 °F 66.2 °F 43% 29.96 in 10.0 mi ESE 10.4 mph - N/A   Clear
6:55 PM 91.4 °F 94.0 °F 66.2 °F 43% 29.95 in 10.0 mi East 9.2 mph - N/A   Clear
7:15 PM 87.8 °F 91.4 °F 68.0 °F 52% 29.96 in 10.0 mi ESE 5.8 mph - N/A   Clear
7:35 PM 84.2 °F 87.3 °F 68.0 °F 58% 29.96 in 10.0 mi SE 4.6 mph - N/A   Clear
7:55 PM 84.2 °F 86.6 °F 66.2 °F 55% 29.96 in 10.0 mi East 6.9 mph - N/A   Clear
8:15 PM 84.2 °F 87.3 °F 68.0 °F 58% 29.96 in 10.0 mi East 6.9 mph - N/A   Clear
8:35 PM 82.4 °F 84.6 °F 66.2 °F 58% 29.97 in 10.0 mi East 4.6 mph - N/A   Clear
8:55 PM 80.6 °F 83.2 °F 68.0 °F 65% 29.97 in 10.0 mi East 6.9 mph - N/A   Clear
9:15 PM 80.6 °F 83.9 °F 69.8 °F 70% 29.97 in 10.0 mi ENE 5.8 mph - N/A   Clear
9:35 PM 80.6 °F 83.9 °F 69.8 °F 70% 29.98 in 10.0 mi NE 5.8 mph - N/A   Clear
9:55 PM 78.8 °F - 69.8 °F 74% 29.98 in 7.0 mi ENE 6.9 mph - N/A   Clear
10:15 PM 80.6 °F 83.9 °F 69.8 °F 70% 29.98 in 10.0 mi ENE 8.1 mph - N/A   Clear
10:35 PM 78.8 °F - 69.8 °F 74% 29.98 in 10.0 mi ENE 8.1 mph - N/A   Partly Cloudy
10:55 PM 80.6 °F 83.9 °F 69.8 °F 70% 29.98 in 10.0 mi ENE 10.4 mph - N/A   Partly Cloudy
11:15 PM 78.8 °F - 68.0 °F 69% 29.98 in 10.0 mi NE 11.5 mph - N/A   Partly Cloudy
11:35 PM 80.6 °F 82.7 °F 66.2 °F 61% 29.97 in 10.0 mi NE 17.3 mph - N/A   Scattered Clouds
11:55 PM 80.6 °F 81.8 °F 62.6 °F 54% 30.00 in 10.0 mi North 12.7 mph - N/A   Overcast